TimePDT,TemperatureF,Dew PointF,Humidity,Sea Level PressureIn,VisibilityMPH,Wind Direction,Wind SpeedMPH,Gust SpeedMPH,PrecipitationIn,Events,Conditions,WindDirDegrees,DateUTC
12:15 AM,48.2,44.6,87,30.19,10.0,Calm,Calm,-,N/A,,Overcast,0,2013-03-16 07:15:00
12:35 AM,48.2,44.6,87,30.19,10.0,Calm,Calm,-,N/A,,Overcast,0,2013-03-16 07:35:00
12:55 AM,48.2,44.6,87,30.19,10.0,Calm,Calm,-,N/A,,Overcast,0,2013-03-16 07:55:00
1:15 AM,48.2,44.6,87,30.19,10.0,Calm,Calm,-,N/A,,Overcast,0,2013-03-16 08:15:00
1:35 AM,48.2,44.6,87,30.18,10.0,Calm,Calm,-,N/A,,Overcast,0,2013-03-16 08:35:00
1:55 AM,48.2,44.6,87,30.19,10.0,Calm,Calm,-,N/A,,Overcast,0,2013-03-16 08:55:00
2:15 AM,48.2,44.6,87,30.18,9.0,Calm,Calm,-,N/A,,Overcast,0,2013-03-16 09:15:00
2:35 AM,48.2,44.6,87,30.18,2.5,Calm,Calm,-,N/A,,Overcast,0,2013-03-16 09:35:00
3:15 AM,48.2,44.6,87,30.17,10.0,Calm,Calm,-,N/A,,Overcast,0,2013-03-16 10:15:00
3:35 AM,48.2,44.6,87,30.16,10.0,South,3.5,-,N/A,,Overcast,170,2013-03-16 10:35:00
3:55 AM,48.2,44.6,87,30.16,10.0,Calm,Calm,-,N/A,,Overcast,0,2013-03-16 10:55:00
4:15 AM,48.2,44.6,87,30.16,9.0,South,4.6,-,N/A,,Overcast,170,2013-03-16 11:15:00
4:35 AM,48.2,44.6,87,30.15,4.0,Calm,Calm,-,N/A,,Overcast,0,2013-03-16 11:35:00
4:55 AM,48.2,44.6,87,30.15,9.0,Calm,Calm,-,N/A,,Overcast,0,2013-03-16 11:55:00
5:15 AM,48.2,44.6,87,30.14,10.0,ESE,3.5,-,N/A,,Overcast,110,2013-03-16 12:15:00
5:35 AM,48.2,44.6,87,30.14,10.0,Calm,Calm,-,N/A,,Overcast,0,2013-03-16 12:35:00
5:55 AM,48.2,44.6,87,30.13,10.0,SE,4.6,-,N/A,,Overcast,140,2013-03-16 12:55:00
6:15 AM,46.4,42.8,87,30.13,10.0,Calm,Calm,-,N/A,,Overcast,0,2013-03-16 13:15:00
6:35 AM,46.4,44.6,93,30.13,10.0,SE,3.5,-,N/A,,Overcast,130,2013-03-16 13:35:00
6:55 AM,46.4,42.8,87,30.12,10.0,SE,4.6,-,N/A,,Overcast,130,2013-03-16 13:55:00
7:15 AM,46.4,42.8,87,30.12,10.0,SE,3.5,-,N/A,,Overcast,130,2013-03-16 14:15:00
7:35 AM,46.4,42.8,87,30.12,10.0,SE,3.5,-,N/A,,Overcast,140,2013-03-16 14:35:00
7:55 AM,46.4,42.8,87,30.12,10.0,SSE,4.6,-,N/A,,Overcast,150,2013-03-16 14:55:00
8:15 AM,46.4,42.8,87,30.12,10.0,SE,5.8,-,N/A,,Overcast,140,2013-03-16 15:15:00
8:35 AM,46.4,42.8,87,30.12,10.0,SSE,5.8,-,N/A,,Mostly Cloudy,150,2013-03-16 15:35:00
8:55 AM,48.2,42.8,82,30.12,10.0,SSE,4.6,-,N/A,,Mostly Cloudy,160,2013-03-16 15:55:00
9:15 AM,48.2,42.8,82,30.12,10.0,SSE,6.9,-,N/A,,Overcast,150,2013-03-16 16:15:00
9:35 AM,48.2,42.8,82,30.11,10.0,SE,6.9,-,N/A,,Overcast,140,2013-03-16 16:35:00
9:55 AM,48.2,42.8,82,30.11,10.0,SE,8.1,-,N/A,,Mostly Cloudy,140,2013-03-16 16:55:00
10:15 AM,48.2,44.6,87,30.10,10.0,SSE,6.9,-,N/A,,Overcast,160,2013-03-16 17:15:00
10:35 AM,48.2,44.6,87,30.10,10.0,SSE,6.9,-,N/A,,Overcast,160,2013-03-16 17:35:00
10:55 AM,48.2,44.6,87,30.10,10.0,SSE,4.6,-,N/A,,Mostly Cloudy,150,2013-03-16 17:55:00
11:15 AM,48.2,44.6,87,30.09,10.0,South,6.9,-,N/A,,Overcast,170,2013-03-16 18:15:00
11:35 AM,48.2,44.6,87,30.09,10.0,SSE,10.4,-,N/A,,Mostly Cloudy,160,2013-03-16 18:35:00
11:55 AM,48.2,44.6,87,30.08,10.0,South,6.9,-,N/A,,Overcast,170,2013-03-16 18:55:00
12:15 PM,48.2,44.6,87,30.08,10.0,South,8.1,-,0.03,,Overcast,190,2013-03-16 19:15:00
12:35 PM,48.2,42.8,82,30.08,10.0,SW,6.9,-,0.04,,Overcast,230,2013-03-16 19:35:00
12:55 PM,48.2,42.8,82,30.07,10.0,WSW,6.9,-,0.04,,Overcast,240,2013-03-16 19:55:00
1:15 PM,48.2,42.8,82,30.07,10.0,South,6.9,-,N/A,,Overcast,170,2013-03-16 20:15:00
1:35 PM,50.0,42.8,76,30.06,10.0,WSW,10.4,-,N/A,,Overcast,240,2013-03-16 20:35:00
1:55 PM,50.0,41.0,71,30.05,10.0,WSW,12.7,-,N/A,,Mostly Cloudy,240,2013-03-16 20:55:00
2:15 PM,51.8,41.0,67,30.05,10.0,SW,10.4,-,N/A,,Mostly Cloudy,230,2013-03-16 21:15:00
2:35 PM,51.8,42.8,71,30.03,10.0,WSW,10.4,-,N/A,,Mostly Cloudy,250,2013-03-16 21:35:00
2:55 PM,50.0,42.8,76,30.03,10.0,SW,9.2,-,N/A,,Overcast,230,2013-03-16 21:55:00
3:15 PM,50.0,42.8,76,30.02,10.0,WNW,4.6,-,0.01,,Overcast,300,2013-03-16 22:15:00
3:35 PM,46.4,39.2,76,30.04,5.0,West,15.0,23.0,0.08,,Overcast,280,2013-03-16 22:35:00
3:55 PM,44.6,37.4,76,30.05,10.0,West,12.7,24.2,0.09,,Overcast,280,2013-03-16 22:55:00
4:15 PM,44.6,37.4,76,30.05,10.0,West,9.2,17.3,N/A,,Overcast,270,2013-03-16 23:15:00
4:35 PM,44.6,37.4,76,30.05,10.0,WNW,6.9,16.1,0.01,,Mostly Cloudy,290,2013-03-16 23:35:00
4:55 PM,44.6,37.4,76,30.04,10.0,Calm,Calm,-,0.01,,Mostly Cloudy,0,2013-03-16 23:55:00
5:15 PM,44.6,37.4,76,30.04,10.0,Calm,Calm,-,N/A,,Overcast,0,2013-03-17 00:15:00
5:35 PM,46.4,37.4,71,30.04,10.0,SW,3.5,-,N/A,,Overcast,220,2013-03-17 00:35:00
5:55 PM,46.4,35.6,66,30.03,10.0,West,4.6,-,N/A,,Mostly Cloudy,270,2013-03-17 00:55:00
6:15 PM,46.4,35.6,66,30.03,10.0,West,6.9,17.3,N/A,,Overcast,280,2013-03-17 01:15:00
6:35 PM,46.4,35.6,66,30.04,10.0,WNW,6.9,18.4,N/A,,Mostly Cloudy,290,2013-03-17 01:35:00
6:55 PM,44.6,35.6,71,30.04,10.0,WNW,8.1,-,N/A,,Mostly Cloudy,290,2013-03-17 01:55:00
7:15 PM,44.6,33.8,66,30.04,10.0,WNW,5.8,-,N/A,,Overcast,290,2013-03-17 02:15:00
7:35 PM,44.6,33.8,66,30.04,10.0,WSW,5.8,-,N/A,,Overcast,250,2013-03-17 02:35:00
7:55 PM,44.6,33.8,66,30.04,10.0,SW,5.8,-,N/A,,Overcast,220,2013-03-17 02:55:00
8:15 PM,42.8,35.6,76,30.06,10.0,West,9.2,-,0.02,,Overcast,280,2013-03-17 03:15:00
8:35 PM,41.0,35.6,81,30.06,10.0,West,5.8,-,0.04,,Overcast,270,2013-03-17 03:35:00
8:55 PM,41.0,35.6,81,30.07,10.0,SW,5.8,-,0.04,,Overcast,230,2013-03-17 03:55:00
9:15 PM,41.0,35.6,81,30.08,10.0,SSE,3.5,-,N/A,,Overcast,160,2013-03-17 04:15:00
9:35 PM,41.0,35.6,81,30.09,10.0,South,5.8,-,N/A,,Overcast,190,2013-03-17 04:35:00
9:55 PM,41.0,35.6,81,30.09,10.0,Calm,Calm,-,N/A,,Overcast,0,2013-03-17 04:55:00
10:15 PM,41.0,35.6,81,30.09,10.0,SW,4.6,-,N/A,,Overcast,230,2013-03-17 05:15:00
10:35 PM,42.8,33.8,70,30.09,10.0,South,3.5,-,N/A,,Overcast,180,2013-03-17 05:35:00
10:55 PM,39.2,33.8,81,30.10,10.0,SW,6.9,-,0.02,,Overcast,230,2013-03-17 05:55:00
11:15 PM,39.2,33.8,81,30.11,10.0,SW,4.6,-,N/A,,Overcast,230,2013-03-17 06:15:00
11:35 PM,39.2,35.6,87,30.12,8.0,SW,3.5,-,0.02,,Overcast,220,2013-03-17 06:35:00
11:55 PM,39.2,35.6,87,30.12,10.0,SSE,5.8,-,0.03,,Overcast,160,2013-03-17 06:55:00